RH
50 40 38 54 82 59 60 72 63 45 35 57 62 64 64 64 68 75 81 83 86 88 89 87 87 88 89 91 89 88 90 91 94 92 90 91 92 90 89 88 85 82 83 83
50 38 37 51 43 56 66 83 71 61 37 70 76 59 66 68 70 78 83 85 85 85 84 89 89 88 87 89 90 84 85 89 88 88 90 91 90 90 90 90 89 88 88 88
62 38 45 69 40 35 40 52 37 50 69 60 80 87 86 79 79 86 92 94 96 94 90 89 90 89 93 89 81 86 86 85 87 88 88 88 85 86 89 91 89 89 89 87
78 61 78 39 23 24 28 51 65 47 60 71 89 94 95 90 90 93 94 98 98 99 96 90 88 88 87 85 88 85 83 83 83 85 87 86 87 89 89 89 90 89 87 85
86 76 72 32 27 29 34 91 58 54 53 69 78 79 96 94 97 98 100 100 100 100 99 97 91 82 85 88 90 89 94 88 81 81 84 85 86 87 88 88 90 90 87 86
74 94 96 97 52 30 29 94 68 58 67 70 71 95 98 93 97 98 99 100 100 100 100 100 100 93 90 98 96 97 91 94 82 82 80 80 80 79 77 75 80 82 81 82
87 95 98 80 58 33 48 97 71 66 73 83 93 95 96 98 98 100 100 100 100 100 100 100 100 100 98 97 97 92 94 92 96 91 88 83 76 73 73 76 77 81 80 81
76 95 94 71 60 79 94 82 72 71 76 85 87 90 95 98 99 100 100 99 98 99 99 97 98 96 100 98 100 97 90 94 98 93 89 96 85 82 79 80 84 86 90 93
93 98 92 76 86 81 76 85 81 78 76 78 85 92 93 96 97 98 100 88 90 91 76 58 61 67 73 83 94 99 100 99 98 96 91 85 87 89 89 86 86 88 88 91
98 91 84 84 77 79 80 81 75 76 81 91 94 94 96 96 97 97 98 93 76 66 61 62 56 53 56 54 54 61 69 72 74 79 82 81 81 84 87 93 93 94 94 94
97 96 87 78 96 82 85 81 90 88 86 89 89 94 92 94 95 96 97 96 90 88 83 80 74 80 74 56 58 65 68 71 74 75 78 82 87 86 86 92 91 90 93 92
96 95 94 98 94 81 89 97 98 80 86 84 84 91 93 95 93 92 95 96 94 94 93 83 80 83 80 78 68 71 75 79 78 74 74 74 78 86 77 79 79 79 81 85
98 99 96 98 99 93 88 88 91 86 88 86 83 84 88 93 92 92 91 94 96 96 96 94 92 94 94 86 84 89 89 82 82 83 86 92 82 83 92 82 71 70 72 73
100 100 97 96 93 91 75 66 56 51 54 57 60 62 68 77 80 83 87 89 88 93 95 96 96 96 94 91 94 91 91 90 93 93 92 92 93 95 96 95 94 95 74 72
100 96 89 81 61 57 51 49 52 56 58 64 64 70 71 77 83 86 87 75 76 81 87 88 91 94 92 92 87 89 94 94 92 92 91 89 89 87 87 87 89 94 96 87
95 92 70 61 52 48 47 50 57 63 64 65 67 69 70 72 75 78 75 74 76 83 82 91 89 92 90 89 91 85 84 81 82 85 85 85 86 85 82 82 83 85 87 90
98 91 73 63 61 61 61 60 63 66 70 78 88 78 68 72 74 79 84 86 88 89 88 89 92 90 89 88 86 79 82 80 79 78 79 80 82 81 79 80 79 79 86 92
68 72 71 68 68 67 73 73 72 73 80 80 88 90 91 91 92 91 90 90 89 88 87 88 88 88 88 85 85 74 74 70 69 73 73 79 74 72 78 78 75 78 83 84
65 70 69 68 68 73 75 78 83 86 90 91 91 94 92 91 89 89 88 90 89 86 89 85 75 76 71 74 72 67 72 77 72 71 74 78 83 78 84 86 86 88 85 86
76 76 76 81 76 78 86 92 86 89 89 90 91 90 90 92 91 90 88 89 88 81 81 73 68 61 59 56 71 64 77 81 69 78 85 84 90 92 89 84 86 90 93 92
86 85 87 89 92 91 91 92 91 92 92 90 88 92 91 89 89 91 92 86 80 80 70 66 61 61 51 69 65 83 82 85 86 86 91 91 91 89 90 91 90 92 93 93
88 89 90 90 90 91 91 89 88 89 89 91 91 90 90 88 90 88 90 75 66 81 67 69 63 78 74 94 71 83 79 80 84 87 90 89 90 91 91 90 91 92 91 92
88 87 87 91 89 87 88 88 90 88 90 90 91 88 76 65 61 70 90 63 61 72 76 79 84 87 86 92 87 87 86 87 88 89 90 92 92 92 92 93 91 92 92 94
88 85 84 84 84 73 74 74 66 75 88 82 89 90 77 78 82 58 65 73 78 86 84 86 86 84 92 93 89 89 88 87 90 91 88 92 93 91 91 91 89 90 91 93
82 80 78 76 61 62 59 56 56 58 61 53 55 57 61 56 80 83 84 85 76 74 89 86 82 79 91 89 89 90 90 90 92 89 89 89 91 90 90 90 91 91 92 90
64 67 63 64 64 53 51 50 56 60 61 65 75 80 79 75 70 68 78 80 74 71 78 94 93 94 89 84 92 88 88 86 87 92 92 90 89 90 90 89 89 90 90 91
65 68 56 53 48 50 63 62 70 82 87 90 81 90 77 81 81 73 79 80 88 89 88 86 89 91 88 88 87 85 85 87 86 90 89 89 89 89 92 91 90 91 92 92
Wind_Speed
21 24 16 16 22 10 18 16 9 9 9 15 12 7 14 11 10 10 11 13 13 12 13 14 16 14 14 12 13 10 11 12 9 9 10 10 11 11 12 12 12 13 13 13
20 20 19 25 21 6 9 11 8 19 3 14 14 11 12 11 10 10 12 12 13 13 14 14 15 14 13 13 13 11 12 12 10 10 11 13 11 11 12 13 13 14 14 12
15 15 14 13 18 10 11 21 11 4 8 13 13 14 13 11 11 11 10 10 12 11 12 12 12 13 13 13 11 12 13 12 11 11 12 12 12 12 12 14 13 14 13 11
8 10 8 13 12 13 6 18 12 10 14 11 11 11 12 12 10 10 10 10 10 6 9 11 10 11 11 12 12 13 13 13 12 13 13 11 12 14 12 12 14 12 12 12
4 5 16 17 8 8 6 10 17 17 16 12 10 8 10 10 9 9 9 8 7 8 6 6 11 9 10 11 11 11 13 13 12 12 13 12 12 12 12 12 14 14 12 13
3 3 6 8 19 5 2 7 14 14 13 13 4 3 4 7 7 8 8 6 7 7 7 9 9 8 9 8 10 11 11 10 13 11 15 11 11 11 12 13 13 13 15 13
9 6 3 18 18 9 1 6 12 12 10 12 6 6 7 7 7 7 7 9 8 8 7 7 6 7 9 9 10 7 10 12 12 9 12 12 11 8 12 12 14 16 13 12
8 7 6 24 13 9 6 12 11 11 10 12 12 10 9 8 7 6 7 7 8 8 8 7 6 7 7 10 6 9 11 12 10 11 8 8 8 10 11 12 13 12 10 9
7 4 7 13 12 10 10 10 11 11 11 10 11 11 10 10 10 11 9 9 8 10 11 9 9 10 11 10 7 6 8 10 10 8 12 13 11 10 10 10 9 9 8 8
3 9 12 12 12 13 12 12 11 12 12 9 11 10 10 8 8 9 9 10 9 11 12 11 11 11 11 10 11 10 12 12 10 11 12 12 10 11 11 8 8 8 7 8
4 5 6 13 11 10 10 10 12 11 11 10 11 11 10 9 10 9 10 10 11 12 11 12 13 13 13 9 9 8 9 9 11 10 13 14 14 11 11 13 12 7 8 7
4 8 4 7 8 11 12 11 8 10 11 11 11 11 10 10 9 10 10 9 9 11 10 11 12 11 12 13 9 8 8 8 7 7 7 8 8 10 22 21 22 21 18 9
4 6 10 8 9 10 10 9 10 10 10 11 12 11 12 10 10 11 10 10 10 10 9 9 9 10 10 10 10 11 8 8 7 7 6 5 6 7 8 12 20 18 18 18
5 3 7 9 7 6 7 8 9 10 10 10 11 11 11 11 11 10 10 10 10 10 10 9 9 10 9 9 8 8 9 12 7 6 6 6 6 5 4 4 6 5 12 12
7 7 8 5 5 6 6 6 9 9 10 11 11 11 11 11 11 11 9 10 11 11 10 9 9 9 9 4 8 9 6 4 5 5 4 4 4 5 4 5 6 5 2 3
4 4 6 5 5 7 8 8 9 9 9 8 9 10 11 11 11 11 11 11 10 9 9 7 8 8 9 9 2 5 5 7 5 4 4 4 3 3 4 5 7 7 5 6
4 4 4 5 8 10 10 10 10 10 10 10 11 9 10 10 10 10 9 8 8 8 8 7 6 5 8 9 8 5 4 4 5 5 4 4 4 4 4 4 6 6 3 2
9 9 10 9 8 9 10 11 11 11 10 9 8 8 9 8 7 6 4 4 5 7 7 6 5 4 5 8 9 4 4 4 4 5 5 5 4 5 4 4 5 5 5 2
10 10 10 10 10 11 10 10 10 9 7 6 7 8 7 6 5 4 4 4 3 7 7 6 6 5 6 8 9 5 5 4 4 4 2 3 5 7 5 4 4 4 4 4
10 11 12 12 11 10 10 8 8 8 6 4 4 4 5 3 3 2 4 6 5 4 4 6 7 6 7 7 11 5 5 4 4 4 4 6 4 4 3 3 4 3 3 3
10 10 10 9 9 8 7 6 6 6 5 5 5 4 3 2 2 4 2 5 6 4 5 7 8 7 5 7 7 5 5 4 4 4 4 3 2 3 3 3 2 2 3 3
7 7 7 7 7 8 7 6 5 5 5 4 2 1 3 5 4 3 2 4 5 5 5 7 6 7 7 12 5 5 5 5 4 4 4 4 4 3 3 2 2 2 2 2
7 7 7 6 7 7 6 5 4 4 3 2 3 5 4 3 4 5 4 6 6 5 4 6 4 6 7 5 4 4 3 3 3 3 3 4 3 3 3 4 2 2 2 4
7 7 7 6 6 6 6 5 5 5 2 4 3 1 4 5 3 4 6 5 4 3 3 3 3 4 6 4 3 3 3 4 3 3 3 3 2 0 0 1 1 2 2 2
7 5 5 4 3 3 4 4 3 4 4 3 2 4 1 3 3 5 4 3 3 3 2 4 3 1 3 4 2 1 2 3 3 1 2 4 2 1 1 1 1 1 2 1
6 3 3 3 4 4 2 3 3 1 3 2 3 3 2 1 1 2 3 0 1 2 3 4 4 4 3 4 3 2 2 2 2 2 2 2 2 3 2 2 1 2 2 1
3 0 2 3 2 2 5 5 5 6 5 5 4 3 3 3 2 2 1 2 5 2 3 3 2 3 2 2 2 4 4 3 2 2 2 1 2 3 2 2 1 1 1 1
Wind_Direction
270 289 290 275 279 289 303 283 228 261 253 30 11 88 83 85 71 55 46 45 43 36 21 17 12 11 19 14 29 38 74 69 61 61 61 65 62 61 64 65 63 78 75 67
269 277 282 306 247 218 302 298 353 255 162 62 15 94 82 78 68 61 55 52 51 40 39 25 15 13 9 24 28 39 63 71 65 60 65 68 71 69 68 67 67 73 69 67
264 280 301 281 247 238 216 213 239 14 57 65 61 49 33 67 64 60 53 45 54 45 42 39 18 20 17 21 26 43 52 58 68 67 66 70 74 70 70 76 74 70 68 65
290 302 262 266 193 205 199 49 36 74 67 76 98 88 52 37 67 59 46 42 47 41 49 54 38 27 16 30 32 36 44 49 57 67 67 67 74 78 71 73 75 70 65 60
277 284 286 187 110 143 146 46 22 20 29 79 113 115 63 52 59 66 50 44 43 36 26 39 67 38 41 38 36 41 38 43 42 62 72 66 67 76 82 76 80 70 58 55
296 276 274 13 340 22 103 87 27 19 15 358 160 254 70 61 62 65 60 36 49 44 43 41 33 45 66 50 48 42 47 47 52 48 76 66 77 81 85 81 80 82 64 53
248 249 241 347 328 296 25 41 39 36 29 29 71 56 85 67 57 52 59 51 37 47 51 60 50 45 42 53 56 64 60 60 56 37 61 78 62 70 83 86 83 74 78 70
217 237 81 354 21 55 351 50 45 59 73 86 90 83 72 58 41 48 67 73 54 52 49 69 86 72 65 69 41 53 49 64 50 49 56 65 75 74 78 83 84 89 79 71
34 44 33 49 59 44 45 54 48 73 81 94 94 84 70 60 43 31 37 70 67 71 67 62 73 75 82 90 77 91 84 76 68 49 54 50 50 57 66 63 74 78 77 75
202 37 51 39 57 54 52 61 62 64 75 85 93 85 76 66 54 42 33 44 58 72 68 52 46 45 49 71 86 77 71 72 72 63 55 57 53 47 48 44 56 54 68 68
90 84 103 49 39 55 67 70 71 71 81 89 91 85 86 78 64 51 43 39 50 54 51 48 41 30 15 47 57 74 90 89 81 72 62 59 53 51 54 49 48 63 57 58
22 1 76 44 48 56 53 47 65 89 86 85 86 87 81 71 67 59 50 50 55 61 57 48 45 38 27 21 41 66 59 54 73 89 98 97 87 75 66 69 66 65 66 80
48 62 83 85 58 61 74 74 64 65 76 84 84 86 83 83 79 78 71 61 54 56 53 54 45 37 22 30 38 42 54 60 58 58 61 81 107 104 96 74 69 69 64 62
17 351 107 42 79 66 83 86 86 83 79 79 89 91 93 92 85 77 75 75 67 61 55 45 35 27 20 30 39 51 55 50 49 54 58 58 57 67 108 107 96 79 64 68
48 61 87 119 137 143 128 107 82 73 68 64 67 74 79 76 66 57 64 87 78 67 55 43 31 19 6 32 56 43 41 72 78 68 66 77 75 70 68 71 78 101 123 89
62 54 73 63 67 54 55 65 83 83 80 76 78 81 83 82 75 66 60 53 64 62 55 58 37 356 350 359 38 99 58 26 60 70 68 65 54 68 75 81 79 66 41 11
244 95 47 77 74 57 54 53 71 83 81 71 58 63 86 88 80 73 62 53 51 52 50 33 37 8 358 355 347 51 72 66 46 63 52 58 66 67 73 83 100 96 75 353
69 55 51 61 89 95 77 72 69 67 65 65 64 64 62 62 66 62 76 110 88 63 41 10 357 22 12 357 333 44 52 61 60 57 51 28 58 68 64 66 68 96 121 56
58 71 64 68 82 88 87 81 79 79 74 71 71 64 57 50 51 41 28 16 68 55 32 355 3 20 26 357 341 44 47 30 60 69 83 103 58 51 31 63 80 68 71 67
73 73 72 67 69 87 90 85 91 85 86 96 101 96 86 53 34 86 81 81 59 25 20 3 356 44 23 6 344 41 30 31 60 72 32 47 43 101 82 53 32 60 67 84
82 82 85 87 81 78 87 90 91 88 62 50 84 79 82 90 15 310 244 118 79 9 299 84 42 358 24 353 322 38 25 25 40 44 36 53 93 56 58 50 53 57 55 48
105 108 108 105 103 95 85 93 96 96 94 88 79 140 200 165 181 148 85 28 94 4 350 65 32 6 340 327 34 26 33 21 24 23 39 29 32 32 50 58 36 45 43 58
121 119 118 112 100 102 101 93 92 98 115 115 32 19 12 23 26 3 86 33 53 26 55 64 33 349 342 310 27 24 22 33 25 23 28 34 15 39 18 53 31 335 15 46
123 115 104 116 155 161 121 137 144 116 112 147 127 334 339 355 23 97 130 109 93 18 41 101 95 353 339 316 34 28 7 13 10 25 42 192 249 93 315 41 43 6 8 187
109 127 145 196 183 136 125 141 175 179 187 229 159 167 223 49 355 31 36 117 156 295 43 161 164 254 285 316 17 8 342 337 45 12 334 323 337 323 299 331 355 45 48 352
161 158 116 43 4 17 23 187 277 269 230 247 217 183 147 143 124 279 201 219 275 221 289 168 226 199 277 313 328 350 307 298 293 213 227 281 278 275 279 269 260 222 233 255
117 131 163 183 137 46 29 6 343 3 14 5 336 161 182 186 169 244 321 257 233 248 254 281 244 206 247 317 307 303 298 284 269 287 290 318 313 304 294 279 280 318 18 16